DW5212 Weather Reports


time (UTC)temp
F
wind
direction
speed
knots
gust
knots
rain 1hr
in
rain 24hr
in
rain mn
in
humidity
%
barometer
mb
20260903092003 74 79 0.0 0.0 0.00 0.45 0.00 95 1015.1
20260903091502 74 79 0.0 0.0 0.00 0.45 0.00 95 1015.3
20260903091003 74 79 0.0 0.0 0.00 0.45 0.00 95 1015.3
20260903090502 74 79 0.0 0.0 0.00 0.45 0.00 95 1015.3
20260903090005 74 79 0.0 0.0 0.00 0.45 0.00 95 1015.2
20260903085501 74 79 0.0 0.0 0.00 0.45 0.00 95 1015.2
20260903085003 74 79 0.0 0.0 0.00 0.45 0.00 95 1015.2
20260903084503 74 79 0.0 0.0 0.00 0.45 0.00 95 1015.1
20260903084002 75 79 0.0 0.0 0.00 0.45 0.00 95 1015.0
20260903083502 75 79 0.0 0.0 0.00 0.45 0.00 95 1015.0
20260903083005 75 79 0.0 0.0 0.00 0.45 0.00 95 1015.1
20260903082503 75 79 0.0 0.0 0.00 0.45 0.00 95 1015.1
20260903082004 75 79 0.0 0.0 0.00 0.45 0.00 95 1015.0
20260903081503 75 79 0.0 0.0 0.00 0.45 0.00 95 1015.0
20260903081003 75 79 0.0 0.0 0.00 0.45 0.00 95 1015.0
20260903080502 75 79 0.0 0.0 0.00 0.45 0.00 95 1014.9
20260903080004 75 79 0.0 0.0 0.00 0.45 0.00 95 1014.8
20260903075502 75 79 0.0 0.0 0.00 0.45 0.00 95 1014.9
20260903074503 75 79 0.0 0.0 0.00 0.45 0.00 95 1014.9
20260903074002 75 79 0.0 0.0 0.00 0.45 0.00 95 1014.9
20260903073502 75 79 0.0 0.0 0.00 0.45 0.00 95 1014.9
20260903073003 75 79 0.0 0.0 0.00 0.45 0.00 95 1014.9
20260903072503 75 79 0.0 0.0 0.00 0.45 0.00 95 1014.9
20260903072003 75 79 0.0 0.0 0.00 0.45 0.00 95 1014.9
20260903071503 75 79 0.0 0.0 0.00 0.45 0.00 95 1015.0
20260903070502 75 79 0.0 0.0 0.00 0.45 0.00 95 1015.0
20260903065503 75 85 0.0 0.0 0.00 0.45 0.00 95 1015.0
20260903065002 75 86 0.0 0.0 0.00 0.45 0.00 95 1015.2
20260903064503 75 192 0.0 0.0 0.00 0.45 0.00 95 1015.2
20260903064003 75 192 0.0 0.0 0.00 0.45 0.00 95 1015.1
20260903063004 75 192 0.0 0.0 0.00 0.45 0.00 95 1015.3
20260903062003 75 192 0.0 0.0 0.00 0.45 0.00 95 1015.2
20260903061503 75 192 0.0 0.0 0.00 0.45 0.00 95 1015.3
20260903061003 75 192 0.0 0.0 0.00 0.45 0.00 95 1015.4
20260903060502 75 192 0.0 0.0 0.00 0.45 0.00 95 1015.6
20260903060006 75 192 0.0 0.0 0.00 0.45 0.00 95 1015.6
20260903055503 75 188 0.0 0.0 0.00 0.45 0.00 95 1015.5
20260903055004 75 188 0.0 0.0 0.00 0.45 0.00 95 1015.6
20260903054005 75 188 0.0 0.0 0.00 0.45 0.00 95 1015.5
20260903053503 75 188 0.0 0.0 0.00 0.45 0.00 95 1015.5
20260903053004 75 188 0.0 0.0 0.00 0.45 0.00 95 1015.5
20260903052004 75 188 0.0 0.0 0.00 0.45 0.00 95 1015.5
20260903051503 75 188 0.0 0.0 0.00 0.45 0.00 95 1015.5
20260903050503 75 188 0.0 0.0 0.00 0.45 0.00 95 1015.5
20260903045503 75 211 0.0 0.0 0.00 0.45 0.45 95 1015.5
20260903045005 75 211 0.0 0.0 0.00 0.45 0.45 95 1015.7
20260903044504 75 211 0.0 0.0 0.00 0.45 0.45 95 1015.6
20260903044004 75 211 0.0 0.0 0.00 0.45 0.45 95 1015.8
20260903043503 75 211 0.0 0.0 0.00 0.45 0.45 95 1015.7
20260903043005 75 211 0.0 0.0 0.00 0.45 0.45 95 1015.7
20260903042503 75 211 0.0 0.0 0.00 0.45 0.45 95 1015.8
20260903042004 76 212 0.0 0.0 0.00 0.45 0.45 94 1015.7
20260903041505 76 211 0.0 0.0 0.00 0.45 0.45 94 1015.8
20260903041004 76 211 0.0 0.0 0.00 0.45 0.45 94 1015.8
20260903040503 76 211 0.0 0.0 0.00 0.45 0.45 94 1015.9
20260903040008 76 211 0.0 0.0 0.00 0.45 0.45 94 1015.9
20260903035503 76 211 0.0 0.0 0.00 0.45 0.45 94 1016.0
20260903035004 76 212 0.0 0.0 0.00 0.45 0.45 94 1015.9
20260903034503 76 211 0.0 0.0 0.00 0.45 0.45 94 1016.0
20260903033504 76 211 0.0 0.0 0.00 0.45 0.45 94 1015.9
20260903033004 76 212 0.0 0.0 0.00 0.45 0.45 94 1015.8
20260903032503 76 211 0.0 0.0 0.00 0.45 0.45 94 1015.8
20260903032004 76 211 0.0 0.0 0.00 0.45 0.45 94 1016.1
20260903031504 76 212 0.0 0.0 0.00 0.45 0.45 94 1016.1
20260903030503 77 211 0.0 0.0 0.00 0.45 0.45 93 1015.8
20260903025502 77 211 0.0 0.0 0.00 0.45 0.45 94 1015.6
20260903025005 77 211 0.0 0.0 0.00 0.45 0.45 94 1015.6
20260903024504 77 211 0.0 0.0 0.00 0.45 0.45 94 1015.5
20260903024003 77 211 0.0 0.0 0.00 0.45 0.45 94 1015.4
20260903023503 77 211 0.0 0.0 0.00 0.45 0.45 94 1015.2
20260903022504 77 212 0.0 0.0 0.00 0.45 0.45 94 1015.2
20260903022004 77 211 0.0 0.0 0.00 0.45 0.45 93 1015.1
20260903021506 77 211 0.0 0.0 0.00 0.45 0.45 93 1015.0
20260903021003 77 211 0.0 0.0 0.00 0.45 0.45 94 1015.0
20260903020502 77 211 0.0 0.0 0.00 0.45 0.45 94 1014.8
20260903020007 77 211 0.0 0.0 0.00 0.45 0.45 94 1014.8
20260903015003 78 211 0.0 0.0 0.00 0.45 0.45 93 1014.7
20260903014503 78 211 0.0 0.0 0.00 0.45 0.45 93 1014.6
20260903014004 78 211 0.0 0.0 0.00 0.45 0.45 93 1014.5
20260903013506 78 211 0.0 0.0 0.00 0.45 0.45 93 1014.8
20260903013006 78 211 0.0 0.0 0.00 0.45 0.45 93 1014.9
20260903012003 78 211 0.0 0.0 0.00 0.45 0.45 92 1015.0
20260903011505 78 211 0.0 0.0 0.00 0.45 0.45 92 1015.0
20260903011004 79 212 0.0 0.0 0.00 0.45 0.45 92 1014.9
20260903010006 79 212 0.0 0.0 0.00 0.45 0.45 92 1015.2
20260903005004 79 211 0.0 0.0 0.00 0.45 0.45 91 1015.2
20260903004503 79 211 0.0 0.0 0.00 0.45 0.45 91 1015.1
20260903004003 79 212 0.0 0.0 0.00 0.45 0.45 91 1015.0
20260903003004 80 211 0.0 0.0 0.00 0.45 0.45 90 1015.0
20260903002503 80 211 0.0 0.0 0.00 0.45 0.45 90 1014.9
20260903001503 80 211 0.0 0.0 0.00 0.45 0.45 90 1014.9
20260903001004 80 212 0.0 0.0 0.00 0.45 0.45 90 1015.0
20260903000503 80 211 0.0 0.0 0.00 0.45 0.45 90 1015.0
20260902235503 80 211 0.0 0.0 0.00 0.45 0.45 89 1014.9
20260902235004 81 212 0.0 0.0 0.00 0.45 0.45 90 1014.9
20260902234503 81 212 0.0 0.0 0.00 0.45 0.45 90 1014.9
20260902234004 81 211 0.0 0.0 0.00 0.45 0.45 89 1015.1
20260902233503 81 211 0.0 0.0 0.00 0.45 0.45 90 1015.1
20260902231504 81 168 0.0 0.0 0.00 0.45 0.45 89 1014.8
20260902231004 81 167 0.0 0.0 0.00 0.45 0.45 88 1014.5
20260902230502 81 257 0.0 0.0 0.00 0.45 0.45 90 1014.7
20260902230007 81 257 0.0 0.0 0.00 0.45 0.45 89 1014.6
20260902225503 81 257 0.0 0.9 0.00 0.45 0.45 89 1014.6
20260902225004 81 257 0.0 1.7 0.00 0.45 0.45 89 1014.7
20260902224504 81 257 0.0 1.7 0.00 0.45 0.45 88 1014.6
20260902224008 81 211 0.0 0.0 0.00 0.45 0.45 88 1014.7
20260902223004 81 217 0.0 1.7 0.00 0.45 0.45 88 1014.8
20260902221504 81 175 0.0 4.3 0.00 0.45 0.45 89 1014.9
20260902221004 81 247 0.0 0.9 0.00 0.45 0.45 90 1014.9
20260902220006 81 247 0.0 0.9 0.00 0.45 0.45 90 1015.0
20260902215503 81 248 0.0 2.6 0.00 0.45 0.45 89 1015.1
20260902215004 81 222 0.0 0.0 0.00 0.45 0.45 89 1015.1
20260902214004 81 240 0.0 0.0 0.00 0.45 0.45 90 1015.1
20260902213503 81 182 0.0 0.0 0.00 0.45 0.45 90 1015.0
20260902213004 81 182 0.0 0.0 0.00 0.45 0.45 91 1015.2
20260902212503 81 169 0.0 0.0 0.00 0.45 0.45 91 1015.2
20260902212004 80 177 0.0 0.0 0.00 0.45 0.45 92 1015.3
20260902211503 80 177 0.0 0.0 0.00 0.45 0.45 92 1015.2
20260902211003 80 177 0.0 0.0 0.00 0.45 0.45 91 1015.5
20260902210502 80 177 0.0 0.0 0.00 0.45 0.45 93 1015.5
20260902210007 80 178 0.0 0.0 0.00 0.45 0.45 92 1015.5
20260902205004 80 177 0.0 0.0 0.00 0.45 0.45 92 1015.7
20260902204505 80 178 0.0 0.0 0.00 0.45 0.45 92 1015.7
20260902204004 79 178 0.0 0.0 0.00 0.45 0.45 93 1015.9
20260902203503 79 178 0.0 0.0 0.00 0.45 0.45 92 1016.1
20260902203005 79 177 0.0 0.0 0.00 0.45 0.45 93 1016.1
20260902202503 79 178 0.0 0.0 0.00 0.45 0.45 93 1016.2
20260902202004 79 177 0.0 0.0 0.00 0.45 0.45 93 1016.3
20260902201503 79 176 0.0 0.0 0.00 0.45 0.45 93 1016.3
20260902201004 79 177 0.0 0.0 0.00 0.45 0.45 93 1016.4
20260902200503 79 76 0.0 0.0 0.00 0.45 0.45 93 1016.5
20260902200006 79 66 0.0 0.0 0.00 0.45 0.45 93 1016.5
20260902195503 78 66 0.0 0.0 0.00 0.45 0.45 93 1016.5
20260902195004 78 66 0.0 0.9 0.00 0.45 0.45 93 1016.5
20260902194503 78 66 0.9 2.6 0.00 0.45 0.45 93 1016.5
20260902194004 78 66 0.0 2.6 0.00 0.45 0.45 93 1016.4
20260902193503 78 45 0.0 0.9 0.01 0.45 0.45 93 1016.3
20260902193006 78 46 0.0 0.0 0.01 0.45 0.45 93 1016.3
20260902192005 77 46 0.0 0.0 0.02 0.45 0.45 93 1016.3
20260902191504 77 44 0.0 0.9 0.06 0.45 0.45 93 1016.3
20260902191003 77 44 0.0 0.9 0.06 0.45 0.45 93 1016.1
20260902190503 77 44 0.0 1.7 0.06 0.45 0.45 93 1016.2
20260902190008 77 45 0.0 1.7 0.06 0.45 0.45 93 1016.3
20260902185503 77 45 0.0 0.0 0.06 0.45 0.45 92 1016.3
20260902185004 77 45 0.0 0.0 0.08 0.45 0.45 92 1016.2
20260902183503 76 45 0.0 1.7 0.44 0.44 0.44 91 1016.6
20260902183005 76 46 0.9 1.7 0.44 0.44 0.44 90 1016.7
20260902182504 77 45 0.9 1.7 0.44 0.44 0.44 90 1016.5
20260902182004 77 46 0.0 1.7 0.43 0.43 0.43 89 1016.7
20260902180503 78 125 0.9 1.7 0.39 0.39 0.39 87 1016.8
20260902180008 79 194 0.9 1.7 0.39 0.39 0.39 85 1016.7
20260902175503 79 197 1.7 3.5 0.39 0.39 0.39 84 1016.7
20260902175007 80 10 1.7 8.7 0.36 0.36 0.36 81 1017.0
20260902174532 82 304 1.7 10.4 0.20 0.20 0.20 78 1017.2
20260902174004 84 184 0.9 10.4 0.07 0.07 0.07 76 1017.5
20260902172503 87 55 0.9 2.6 0.00 0.00 0.00 70 1016.9
20260902172004 89 19 0.9 3.5 0.00 0.00 0.00 69 1016.8
20260902171005 89 51 0.9 5.2 0.00 0.00 0.00 72 1016.7
20260902170504 89 88 0.9 2.6 0.00 0.00 0.00 73 1016.8
20260902170005 89 103 0.9 1.7 0.00 0.00 0.00 74 1016.8
20260902165502 88 168 0.9 4.3 0.00 0.00 0.00 76 1016.8
20260902165003 88 67 0.9 4.3 0.00 0.00 0.00 77 1017.2
20260902164003 87 36 0.9 1.7 0.00 0.00 0.00 76 1017.4
20260902163502 87 342 0.9 5.2 0.00 0.00 0.00 76 1017.4
20260902163004 88 99 0.9 5.2 0.00 0.00 0.00 76 1017.4
20260902162503 88 112 0.9 2.6 0.00 0.00 0.00 77 1017.3
20260902162004 88 81 0.9 5.2 0.00 0.00 0.00 76 1017.3
20260902161502 88 128 0.9 2.6 0.00 0.00 0.00 76 1017.3
20260902161003 88 26 0.9 2.6 0.00 0.00 0.00 77 1017.3
20260902160005 88 145 1.7 3.5 0.00 0.00 0.00 78 1017.4
20260902155003 87 109 0.9 5.2 0.00 0.00 0.00 80 1017.4
20260902154503 86 74 0.0 2.6 0.00 0.00 0.00 80 1017.5
20260902153003 86 134 0.0 1.7 0.00 0.00 0.00 80 1017.4
20260902152503 86 17 0.9 1.7 0.00 0.00 0.00 80 1017.5
20260902152002 86 114 0.9 2.6 0.00 0.00 0.00 81 1017.4
20260902151503 86 169 0.9 2.6 0.00 0.00 0.00 81 1017.3
20260902151003 86 115 0.9 2.6 0.00 0.00 0.00 81 1017.3
20260902150503 85 70 0.9 3.5 0.00 0.00 0.00 82 1017.2
20260902145504 85 49 1.7 5.2 0.00 0.00 0.00 82 1017.2
20260902145003 85 61 0.9 3.5 0.00 0.00 0.00 83 1017.3
20260902144503 85 277 0.9 6.1 0.00 0.00 0.00 83 1017.3
20260902144004 84 146 0.9 6.1 0.00 0.00 0.00 84 1017.3
20260902143504 84 237 0.9 5.2 0.00 0.00 0.00 85 1017.2
20260902142503 82 88 0.9 3.5 0.00 0.00 0.00 86 1017.2
20260902141004 81 98 0.9 3.5 0.00 0.00 0.00 89 1017.0
20260902140503 81 98 0.9 4.3 0.00 0.00 0.00 89 1017.0
20260902135503 80 148 0.9 1.7 0.00 0.00 0.00 90 1017.0
20260902135004 80 141 0.9 5.2 0.00 0.00 0.00 90 1016.9
20260902134502 79 184 0.9 5.2 0.00 0.00 0.00 90 1016.9
20260902134003 79 137 0.9 3.5 0.00 0.00 0.00 91 1017.0
20260902133502 79 106 0.9 2.6 0.00 0.00 0.00 91 1016.9
20260902132503 79 136 0.0 6.1 0.00 0.00 0.00 92 1016.9
20260902132003 78 105 0.0 6.1 0.00 0.00 0.00 92 1017.0
20260902131503 78 96 0.0 0.0 0.00 0.00 0.00 92 1017.0
20260902131004 78 86 0.0 0.0 0.00 0.00 0.00 92 1017.0
20260902130004 78 98 0.0 0.0 0.00 0.00 0.00 93 1016.9
20260902125503 77 121 0.0 0.0 0.00 0.00 0.00 93 1016.9
20260902125003 77 121 0.0 1.7 0.00 0.00 0.00 93 1016.8
20260902124504 77 163 0.0 1.7 0.00 0.00 0.00 93 1016.8
20260902124004 77 92 0.0 0.9 0.00 0.00 0.00 93 1016.8
20260902123504 77 92 0.9 2.6 0.00 0.00 0.00 93 1016.7
20260902123004 77 111 0.9 3.5 0.00 0.00 0.00 93 1016.6
20260902122504 77 92 0.9 3.5 0.00 0.00 0.00 93 1016.7
20260902122005 77 78 0.0 1.7 0.00 0.00 0.00 93 1016.6
20260902121504 77 80 0.0 1.7 0.00 0.00 0.00 93 1016.5
20260902121007 77 138 0.9 1.7 0.00 0.00 0.00 93 1016.4
20260902115503 77 101 0.0 2.6 0.00 0.00 0.00 93 1016.5
20260902115005 77 101 0.0 2.6 0.00 0.00 0.00 93 1016.5
20260902114503 76 71 0.0 0.0 0.00 0.00 0.00 93 1016.5
20260902114003 76 71 0.0 0.0 0.00 0.00 0.00 92 1016.4
20260902113503 76 71 0.0 0.0 0.00 0.00 0.00 93 1016.4
20260902113004 76 71 0.0 0.0 0.00 0.00 0.00 93 1016.4
20260902112503 76 71 0.0 0.0 0.00 0.00 0.00 93 1016.1
20260902112003 76 72 0.0 0.0 0.00 0.00 0.00 93 1016.1
20260902111503 76 72 0.0 0.0 0.00 0.00 0.00 93 1016.0
20260902110007 76 124 0.0 0.0 0.00 0.00 0.00 92 1015.7
20260902105503 76 124 0.0 0.0 0.00 0.00 0.00 92 1015.8
20260902105003 76 134 0.0 0.0 0.00 0.00 0.00 92 1016.0
20260902103500 76 137 0.0 0.0 0.00 0.00 0.00 92 1015.9
20260902102502 76 140 0.0 0.0 0.00 0.00 0.00 92 1016.0
20260902102003 76 39 0.0 0.0 0.00 0.00 0.00 92 1016.0
20260902101503 76 39 0.0 0.0 0.00 0.00 0.00 92 1016.0
20260902101003 76 39 0.0 0.0 0.00 0.00 0.00 92 1016.0
20260902100503 76 39 0.0 0.0 0.00 0.00 0.00 92 1015.9
20260902100004 76 39 0.0 0.0 0.00 0.00 0.00 92 1015.9
20260902095500 76 82 0.0 0.0 0.00 0.00 0.00 92 1015.9
20260902095003 76 82 0.0 0.0 0.00 0.00 0.00 92 1015.8
20260902094504 76 82 0.0 0.0 0.00 0.00 0.00 92 1015.7
20260902094004 76 82 0.0 0.0 0.00 0.00 0.00 91 1015.6
20260902093503 76 82 0.0 0.0 0.00 0.00 0.00 91 1015.7
20260902093004 76 82 0.0 0.0 0.00 0.00 0.00 91 1015.6
20260902092503 77 82 0.0 0.0 0.00 0.00 0.00 91 1015.7